Regional Weather Roundup
Issued by NWS State College, PA

Home | Current Version | Previous Version | Graphics & Text | Print | Product List | Glossary Off
Versions: 1 2 3 4 5 6 7 8 9 10 11 12 13 14 15 16 17 18 19 20 21 22 23 24 25 26 27 28 29 30 31 32 33 34 35 36 37 38 39 40 41 42 43 44 45 46 47 48 49 50

000
ASUS41 KCTP 281010
RWRCTP

REGIONAL WEATHER ROUNDUP
NATIONAL WEATHER SERVICE STATE COLLEGE PA
600 AM EDT SAT MAY 28 2016

Note: "fair" indicates few or no clouds below 12,000 feet with no
significant weather and/or obstructions to visibility.

* = STATION THAT DOES NOT REPORT PRECIPITATION /E.G. RAIN...SNOW...ETC/
    THUNDER OR FOG.

PAZ002>004-007>009-013>016-020>023-029>032-281100-
WESTERN PENNSYLVANIA

CITY           SKY/WX    TMP DP  RH WIND       PRES   REMARKS
ERIE           PTCLDY    72  64  76 S6        30.06R
MEADVILLE      CLOUDY    67  63  87 CALM      30.11R
FRANKLIN*      CLOUDY    61  57  88 CALM      30.14R
NEW CASTLE     FAIR      62  61  96 CALM      30.10R FOG
BEAVER COUNTY  NOT AVBL
BUTLER*        PTCLDY   N/A N/A N/A E3        30.14R
PITTSBURGH INT MOCLDY    67  62  84 CALM      30.10R
PITTSBURGH     PTCLDY    67  62  84 SE5       30.11R HAZE
INDIANA*       CLEAR     63  63 100 E3        30.16S
LATROBE        PTCLDY    63  63 100 CALM      30.13R FOG
WASHINGTON CO* MOCLDY    61  59  94 CALM      30.12R
$$

PAZ004>006-010>012-017>019-024>028-033>037-041-042-045-046-049>053-281100-
CENTRAL PENNSYLVANIA

CITY           SKY/WX    TMP DP  RH WIND       PRES   REMARKS
BRADFORD       CLOUDY    56  54  93 CALM      30.16R
DUBOIS         CLEAR     63  60  90 E3        30.14R
CLEARFIELD     CLEAR     62  59  90 CALM      30.15R
JOHNSTOWN      CLEAR     64  57  78 CALM      30.17R
ALTOONA        CLEAR     63  62  97 CALM      30.15R FOG
STATE COLLEGE  CLEAR     63  63 100 CALM      30.13R
WILLIAMSPORT   FOG       66  64  93 CALM      30.11R VSB 3/4
SELINSGROVE    CLEAR     64  62  93 CALM      30.12R FOG
FT INDIANTOWN  PTCLDY    64  64 100 CALM      30.12R FOG
CAPITAL CITY   CLEAR     66  63  90 SW3       30.12R
HARRISBURG     PTCLDY    68  64  87 CALM      30.11R
YORK           CLEAR     63  62  97 CALM      30.12R FOG
$$

PAZ038>040-043-044-047-048-054-055-060>062-067>071-281100-
EASTERN PENNSYLVANIA

CITY           SKY/WX    TMP DP  RH WIND       PRES   REMARKS
SCRANTON       CLEAR     65  63  93 SE3       30.12R
MOUNT POCONO   CLEAR     62  60  93 W5        30.16R
ALLENTOWN      PTCLDY    68  63  84 SW3       30.12R
QUAKERTOWN*    CLOUDY    68  64  88 CALM      30.14R
READING        MOCLDY    69  63  81 S3        30.11R
LANCASTER      PTCLDY    65  62  90 CALM      30.12R
COATESVILLE    MOSUNNY   66  63  88 CALM      30.15R
POTTSTOWN      PTCLDY    67  63  87 CALM      30.14R
BLUE BELL      MOCLDY    68  61  77 SW3       30.13R
DOYLESTOWN     PTCLDY    67  61  81 VRB3      30.12R
WILLOW GROVE   NOT AVBL
NORTH PHILA    PTCLDY    70  60  70 CALM      30.14R
PHILADELPHIA   MOCLDY    68  59  73 S6        30.14R
$$




USA.gov is the U.S. government's official web portal to all federal, state and local government web resources and services.